Location: Gu�tanj
(46.5431°N, 14.9692°E)
Time: 18:37:47
(UTC+00:00)

SL-16 R/B - Pass Details

Date: 03 March 2021
Orbit: 843 x 845 km, 71.0° (Epoch: 16 April)

Event Time Altitude Azimuth Distance (km) Brightness Sun altitude
Rises 17:46:48 0° 209° (SSW) 3,388 5.7 -10.7°
Reaches altitude 10° 17:49:14 10° 211° (SSW) 2,458 5.0 -11.1°
Maximum altitude 17:54:53 77° 297° (WNW) 871 2.4 -12.1°
Drops below altitude 10° 18:00:35 10° 24° (NNE) 2,476 4.4 -13.1°
Sets 18:03:03 0° 26° (NNE) 3,415 5.1 -13.5°
